Regional Weather Roundup
Issued by NWS

Home | Current Version | Previous Version | Graphics & Text | Print | Product List | Glossary Off
Versions: 1 2 3 4 5 6 7 8 9 10 11 12 13 14 15 16 17 18 19 20 21 22 23 24 25 26 27 28 29 30 31 32 33 34 35 36 37 38 39 40 41 42 43 44 45 46 47 48 49 50

000
ASUS43 KOAX 221010
RWRNE

WEATHER ROUNDUP FOR NEBRASKA
NATIONAL WEATHER SERVICE OMAHA NE
500 AM CDT FRI SEP 22 2017

NOTES: SATELLITE DATA IS BEING USED TO AUGMENT CLOUD COVER ABOVE
       12000 FEET.
       "FAIR" INDICATES FEW OR NO CLOUDS BELOW 12,000 FEET WITH NO
       SIGNIFICANT WEATHER AND/OR OBSTRUCTIONS TO VISIBILITY.


NEZ001>004-019>022-054>056-221100-
NEBRASKA PANHANDLE

CITY           SKY/WX    TMP DP  RH WIND       PRES   REMARKS
SCOTTSBLUFF    CLOUDY    48  40  73 CALM      29.74R
ALLIANCE       CLEAR     48  40  73 N10       29.69R
CHADRON        CLOUDY    51  39  63 N5        29.75R
GORDON         FAIR      49  42  75 NW9       29.69R
KIMBALL        CLEAR     50  40  68 NW15      29.77R
SIDNEY         CLEAR     52  37  56 NW9       29.73R
$$

NEZ057>060-069>072-079>082-221100-
SOUTHWEST NEBRASKA

CITY           SKY/WX    TMP DP  RH WIND       PRES   REMARKS
NORTH PLATTE   CLEAR     76  64  66 S15G24    29.67R
IMPERIAL       CLEAR     65  44  46 S15       29.68R
LEXINGTON      CLEAR     77  66  68 S15G25    29.71S
MCCOOK         LGT RAIN  77  64  64 S23G30    29.69R
OGALLALA       CLEAR     63  44  51 CALM      29.66R
$$

NEZ005>010-023>029-035>040-094-221100-
NORTH CENTRAL NEBRASKA

CITY           SKY/WX    TMP DP  RH WIND       PRES   REMARKS
VALENTINE      CLEAR     67  55  65 VRB5      29.63R
AINSWORTH      CLEAR     72  66  82 S16       29.64S
BROKEN BOW     CLEAR     76  67  73 S18G30    29.70R
O`NEILL        CLEAR     78  69  74 S22G30    29.68S
ORD            CLEAR     77  66  68 S20G31    29.69R
THEDFORD       CLEAR     75  64  67 S20       29.66S
$$

NEZ041-046>049-061>064-073>077-083>087-221100-
SOUTH CENTRAL NEBRASKA

CITY           SKY/WX    TMP DP  RH WIND       PRES   REMARKS
GRAND ISLAND   CLEAR     76  71  85 S18G28    29.76R
AURORA         CLEAR     76  70  82 S15G23    29.78R
HASTINGS       CLEAR     76  68  76 S15G23    29.78R
HEBRON         CLEAR     79  68  69 S14G22    29.80S
HOLDREGE       CLEAR     76  65  70 S18G29    29.74R
KEARNEY        CLEAR     77  68  73 S23G29    29.74R
YORK           CLEAR     77  72  83 S17       29.79R
$$

NEZ011>018-030>034-042>045-221100-
NORTHEAST NEBRASKA

CITY           SKY/WX    TMP DP  RH WIND       PRES   REMARKS
NORFOLK        CLEAR     78  71  79 S18       29.75R
ALBION         CLEAR     78  71  81 S18G24    29.74S
BLAIR          CLEAR     76  71  83 S14G20    29.83R
COLUMBUS       CLEAR     78  70  76 S16G24    29.77R
FREMONT        CLEAR     77  69  77 SE12      29.81R
TEKAMAH        CLEAR     76  70  82 SE12G20   29.79S
WAYNE          PTCLDY    75  73  91 S15       29.76S
$$

NEZ050>053-065>068-078-088>093-221100-
SOUTHEAST NEBRASKA

CITY           SKY/WX    TMP DP  RH WIND       PRES   REMARKS
LINCOLN        CLEAR     78  69  73 S14       29.81R
OMAHA EPPLEY   PTCLDY    78  70  76 S18       29.83R
BEATRICE       CLEAR     78  70  75 S15       29.83S
FALLS CITY     CLEAR     77  70  79 S12       29.87R
NEBRASKA CITY  CLEAR     76  73  89 S13       29.86S
PLATTSMOUTH    CLEAR     76  72  86 SE13      29.85R
$$

NEZ044-045-051>053-067-221100-
OMAHA AREA

CITY           SKY/WX    TMP DP  RH WIND       PRES   REMARKS
OMAHA EPPLEY   PTCLDY    78  70  76 S18       29.83R
BLAIR          CLEAR     76  71  83 S14G20    29.83R
FREMONT        CLEAR     77  69  77 SE12      29.81R
MILLARD        CLEAR     78  72  81 SE8       29.83R
OFFUTT AFB     CLEAR     76  71  84 SE10      29.83R
PLATTSMOUTH    CLEAR     76  72  86 SE13      29.85R
WAHOO          FAIR      76  69  79 SE10      29.81R
$$



USA.gov is the U.S. government's official web portal to all federal, state and local government web resources and services.